Regional Weather Roundup
Issued by NWS

Home | Current Version | Previous Version | Text Only | Print | Product List | Glossary On
Versions: 1 2 3 4 5 6 7 8 9 10 11 12 13 14 15 16 17 18 19 20 21 22 23 24 25 26 27 28 29 30 31 32 33 34 35 36 37 38 39 40 41 42 43 44 45 46 47 48 49 50
000
ASCA42 TJSJ 260111
RWRPR
PUERTO RICO/U.S. VIRGIN ISLANDS HOURLY WEATHER ROUNDUP
NATIONAL WEATHER SERVICE SAN JUAN PR
900 PM AST FRI JUL 25 2014

PRZ001-004-260200-
PUERTO RICO

CITY           SKY/WX    TMP DP  RH WIND       PRES   REMARKS
SAN JUAN LMM   PTCLDY    82  75  78 NE13      30.06R
PONCE          PTCLDY    84  73  70 E12       30.00  HX  91
AGUADILLA      MOCLDY    81  75  83 E13       30.06R
CEIBA          MOCLDY    82  75  78 E9        30.09R
$$

PRZ006-007-260200-
U.S. VIRGIN ISLANDS

CITY           SKY/WX    TMP DP  RH WIND       PRES   REMARKS
CHARLOTTE AMA  PTCLDY    82  75  78 E17       30.06R
CHRISTIANSTED  LGT RAIN  82  75  78 NE13G18   30.05R
$$

HOURLY WEATHER ROUNDUP FOR THE NEWS MEDIA

CITY           SKY/WX    TMP DP  RH WIND       PRES   REMARKS
MIAMI          PTCLDY    84  76  76 SE6       30.07R HX  93
ORLANDO        CLOUDY    78  71  79 SE7       30.06F
NEW YORK       PTCLDY    73  62  68 S12       30.02R
NEWARK         PTCLDY    75  59  57 SW15      30.00R
CHICAGO        PTCLDY    71  57  61 SW9       29.92S
HARTFORD       CLEAR     66  59  78 SW5       29.97R
BOSTON         CLEAR     76  57  51 SW8       29.95R
DALLAS         PTCLDY    96  66  37 SE16      29.90R HX  99
PHILADELPHIA   PTCLDY    77  57  50 SW12      30.02R


USA.gov is the U.S. government's official web portal to all federal, state and local government web resources and services.